This demonstration page uses our WeatherBlox Daily Observations layout. Learn more.

40.92945, -100.16068

Hourly Observations for August 22, 2019

Temp ( °F °C ) Dew Point ( °F °C ) Humidity (%) Winds ( mph kmh ) Pressure ( in mb ) Visibility ( mi km ) Precip ( " mm )
12:15 am 00:15 Clear 63 17.3 63 17.3 100 100 E 5 7 30.06 1018 7 11.265408 0 0
12:35 am 00:35 Clear 63 17.1 63 17 99 99 ESE 5 7 30.06 1018 7 11.265408 0 0
12:55 am 00:55 Partly Cloudy 63 17.2 63 17 99 99 ESE 5 7 30.06 1018 7 11.265408 0 0
1:15 am 01:15 Partly Cloudy 63 17 62 16.7 98 98 E 5 7 30.03 1017 7 11.265408 0 0
1:35 am 01:35 Mostly Cloudy 63 17.1 63 17 99 99 ESE 3 6 30 1016 7 11.265408 0 0
1:55 am 01:55 Cloudy with Mist and Fog 63 17 63 17 100 100 Calm 30.03 1017 5 8.04672 0 0
2:15 am 02:15 Cloudy with Mist and Fog 63 17.1 63 17.1 100 100 Calm 29.97 1015 4 6.437376 0 0
2:35 am 02:35 Cloudy with Mist and Fog 62 16.5 62 16.5 100 100 ENE 3 6 30 1016 2.5 4.02336 0 0
2:55 am 02:55 Cloudy with Fog 61 16.3 61 16.3 100 100 Calm 30 1016 0.25 0.402336 0 0
3:15 am 03:15 Cloudy with Mist and Fog 62 16.6 62 16.6 100 100 Calm 30 1016 0.75 1.207008 0 0
3:35 am 03:35 Cloudy with Fog 63 17 63 17 100 100 SE 5 7 29.97 1015 0.5 0.804672 0 0
3:55 am 03:55 Cloudy with Fog 63 17 63 17 100 100 SE 5 7 29.97 1015 0.25 0.402336 0 0
4:15 am 04:15 Cloudy with Fog 63 17 63 17 100 100 Calm 29.97 1015 0.25 0.402336 0 0
4:35 am 04:35 Cloudy with Fog 63 17.1 63 17.1 100 100 ESE 3 6 29.97 1015 0.25 0.402336 0 0
4:55 am 04:55 Cloudy with Fog 63 17.1 63 17.1 100 100 ENE 5 7 29.97 1015 0.25 0.402336 0 0
5:15 am 05:15 Cloudy with Fog 63 17 63 17 100 100 ENE 7 11 29.97 1015 0.25 0.402336 0 0
5:35 am 05:35 Cloudy with Fog 62 16.7 62 16.7 100 100 ENE 8 13 30 1016 0.25 0.402336 0 0
5:55 am 05:55 Cloudy with Fog 62 16.5 62 16.5 100 100 E 7 11 30 1016 0.25 0.402336 0 0
6:15 am 06:15 Cloudy with Mist and Fog 62 16.7 62 16.7 100 100 E 7 11 30 1016 0.75 1.207008 0 0
6:35 am 06:35 Cloudy with Fog 62 16.8 62 16.8 100 100 ESE 9 15 29.97 1015 0.5 0.804672 0 0
6:55 am 06:55 Cloudy with Drizzle 63 17 63 17 100 100 SE 7 11 29.97 1015 1 1.609344 0 0
7:15 am 07:15 Cloudy with Drizzle 63 17.1 63 17.1 100 100 ESE 6 9 29.97 1015 1.75 2.816352 0 0
7:35 am 07:35 Cloudy with Mist and Fog 63 17.2 63 17.2 100 100 E 9 15 29.97 1015 1.5 2.414016 0 0
7:55 am 07:55 Cloudy with Mist and Fog 64 17.5 64 17.5 100 100 ESE 9 15 29.97 1015 1 1.609344 0 0
8:15 am 08:15 Cloudy with Mist and Fog 64 17.5 64 17.5 100 100 SE 7 11 29.97 1015 1.75 2.816352 0.01 0.254
8:35 am 08:35 Cloudy with Thunderstorms 64 17.5 64 17.5 100 100 SE 8 13 29.97 1015 2 3.218688 0.01 0.254
8:55 am 08:55 Cloudy with Mist and Fog 64 17.5 64 17.5 100 100 SSE 7 11 29.97 1015 1 1.609344 0.01 0.254
9:15 am 09:15 Cloudy with Nearby Thunderstorms 64 17.6 64 17.6 100 100 SE 10 17 29.97 1015 3 4.828032 0 0
9:35 am 09:35 Cloudy with Mist and Fog 64 17.8 64 17.8 100 100 SE 8 13 29.97 1015 3 4.828032 0 0
9:55 am 09:55 Cloudy with Mist and Fog 64 18 64 18 100 100 SE 9 15 29.97 1015 4 6.437376 0 0
10:15 am 10:15 Cloudy with Mist and Fog 65 18.3 65 18.2 99 99 ESE 12 19 29.97 1015 4 6.437376 0 0
10:35 am 10:35 Cloudy with Mist and Fog 65 18.5 65 18.5 100 100 E 10 17 29.94 1014 4 6.437376 0 0
10:55 am 10:55 Cloudy with Mist and Fog 66 18.7 65 18.6 99 99 ESE 15 24 29.94 1014 4 6.437376 0 0
11:15 am 11:15 Cloudy with Mist and Fog 66 19 66 18.8 99 99 ESE 15 24 29.94 1014 5 8.04672 0 0
11:35 am 11:35 Cloudy with Light Rain 66 19.1 66 18.7 98 98 SSE 13 20 29.97 1015 5 8.04672 0 0
11:55 am 11:55 Cloudy with Mist and Fog 66 19.1 66 18.8 98 98 SSE 9 15 29.97 1015 5 8.04672 0 0
12:15 pm 12:15 Cloudy with Mist and Fog 67 19.3 66 19 98 98 SSE 10 17 29.97 1015 4 6.437376 0 0
12:35 pm 12:35 Cloudy with Mist and Fog 67 19.3 67 19.2 99 99 SE 8 13 29.97 1015 2.5 4.02336 0 0
12:55 pm 12:55 Cloudy with Mist and Fog 67 19.3 67 19.2 99 99 SE 8 13 29.97 1015 3 4.828032 0 0
1:15 pm 13:15 Cloudy with Rain 67 19.5 67 19.4 99 99 SSE 6 9 29.97 1015 1.75 2.816352 0 0
1:35 pm 13:35 Cloudy with Light Drizzle 67 19.3 67 19.3 100 100 SE 6 9 29.97 1015 1.5 2.414016 0 0
1:55 pm 13:55 Cloudy with Nearby Thunderstorms 67 19.5 67 19.5 100 100 SE 7 11 29.97 1015 1.25 2.01168 0 0
2:15 pm 14:15 Cloudy with Light Drizzle 67 19.5 67 19.5 100 100 ESE 6 9 29.97 1015 1.5 2.414016 0 0
2:35 pm 14:35 Cloudy with Nearby Thunderstorms 67 19.7 67 19.7 100 100 ESE 7 11 29.97 1015 2 3.218688 0 0
2:55 pm 14:55 Cloudy with Mist and Fog 68 20 68 19.9 99 99 ESE 7 11 29.97 1015 3 4.828032 0 0
3:15 pm 15:15 Cloudy 69 20.4 68 20.1 98 98 E 7 11 29.94 1014 7 11.265408 0.01 0.254
3:35 pm 15:35 Cloudy with Mist and Fog 69 20.4 68 20 98 98 SE 7 11 29.91 1013 4 6.437376 0.01 0.254
3:55 pm 15:55 Cloudy with Light Drizzle 69 20.3 68 20.1 99 99 ESE 7 11 29.91 1013 4 6.437376 0.01 0.254
4:15 pm 16:15 Cloudy with Light Rain 69 20.6 68 20.1 97 97 SE 8 13 29.91 1013 5 8.04672 0 0
4:35 pm 16:35 Cloudy with Mist and Fog 70 21 69 20.5 97 97 ESE 7 11 29.91 1013 5 8.04672 0 0
4:55 pm 16:55 Cloudy 73 22.5 70 21.2 92 92 ESE 9 15 29.88 1012 10 16.09344 0 0
5:15 pm 17:15 Mostly Cloudy 73 22.7 70 20.9 90 90 ESE 12 19 29.88 1012 10 16.09344 0 0
5:35 pm 17:35 Mostly Cloudy 72 22.4 70 20.9 91 91 E 9 15 29.88 1012 10 16.09344 0 0
5:55 pm 17:55 Cloudy 72 22.4 69 20.7 90 90 E 9 15 29.88 1012 10 16.09344 0 0
6:15 pm 18:15 Cloudy 73 22.5 69 20.6 89 89 E 12 19 29.88 1012 10 16.09344 0 0
6:35 pm 18:35 Mostly Cloudy 72 22.1 68 20.2 89 89 ESE 14 22 29.88 1012 10 16.09344 0 0
6:55 pm 18:55 Mostly Cloudy 72 22.2 68 19.8 86 86 ESE 13 20 29.85 1011 10 16.09344 0 0
7:15 pm 19:15 Partly Cloudy with Nearby Thunderstorms 72 22 68 20 88 88 ESE 10 17 29.85 1011 10 16.09344 0 0
7:35 pm 19:35 Partly Cloudy 71 21.8 68 19.8 88 88 ESE 10 17 29.88 1012 10 16.09344 0 0
7:55 pm 19:55 Partly Cloudy with Nearby Thunderstorms 70 21.2 68 19.8 92 92 ESE 7 11 29.91 1013 10 16.09344 0 0
8:15 pm 20:15 Mostly Cloudy with Thunderstorms 71 21.5 67 19.5 88 88 ESE 9 15 29.91 1013 10 16.09344 0 0
8:35 pm 20:35 Cloudy 70 21.1 68 20 93 93 E 9 15 29.91 1013 10 16.09344 0 0
8:55 pm 20:55 Cloudy 70 21.1 68 20 93 93 E 8 13 29.91 1013 10 16.09344 0 0
9:15 pm 21:15 Cloudy 69 20.8 68 20 95 95 ESE 8 13 29.94 1014 10 16.09344 0 0
9:35 pm 21:35 Mostly Cloudy 69 20.5 68 19.8 96 96 ESE 7 11 29.94 1014 10 16.09344 0 0
9:55 pm 21:55 Mostly Cloudy 69 20.7 68 20 96 96 ESE 9 15 29.94 1014 10 16.09344 0 0
10:15 pm 22:15 Mostly Cloudy with Nearby Thunderstorms 69 20.3 68 19.8 97 97 ESE 8 13 29.94 1014 10 16.09344 0 0
10:35 pm 22:35 Mostly Cloudy 68 20.1 67 19.7 98 98 ESE 7 11 29.97 1015 10 16.09344 0 0
10:55 pm 22:55 Cloudy 68 20.2 68 19.8 98 98 ESE 9 15 29.91 1013 10 16.09344 0 0
11:15 pm 23:15 Cloudy 68 20.1 67 19.7 98 98 ESE 8 13 29.91 1013 10 16.09344 0 0
11:35 pm 23:35 Cloudy 68 20 67 19.5 97 97 ESE 9 15 29.91 1013 10 16.09344 0 0
11:55 pm 23:55 Partly Cloudy 68 19.8 67 19.6 99 99 ESE 10 17 29.97 1015 7 11.265408 0 0

Powered by AerisWeather